www.pogodaiklimat.ru

Погода и климат >> Архив погоды >> Вануату >> Санто-Пекоа


ПОГОДА в Санто-Пекоа

  • Прогноз погоды в Санто-Пекоа
  • Монитор погоды в Санто-Пекоа

АРХИВ ПОГОДЫ в Санто-Пекоа

Время (UTC), дата Ветер
(напр.,м/с)
 
Видим.   Явления Облачность Т
(С)
Тd
(С)
f
(%)
Тe
(С)
Тes
(С)
Комфортность P
(гПа)
Po
(гПа)
Тmin
(С)
Tmax
(С)
R
(мм)
R24
(мм)
S
(см)
06 12.06 ЮВ 4 20 км 1/1 750 м
[Cu hum]
+24.8 +19.8 74 +30 +30 душно 1011.7 1006.6
09 12.06 ЮВ 4 20 км 4/4 750 м
[Cu hum]
+24.5 +19.1 72 +29 +29 душно 1013.5 1008.4
12 12.06 ЮВ 4 20 км 4/4 750 м
[Cu hum]
+24.0 +18.2 70 +28 +28 душно 1014.0 1008.9 +27.8
15 12.06 ЮВ 4 20 км 4/4 750 м
[Cu Sc]
+24.2 +17.5 66 +28 +28 душно 1013.2 1008.1
18 12.06 ЮВ 2 20 км 1/1 750 м
[Cu hum]
+23.1 +17.3 70 +28 +28 душно 1013.0 1007.9
21 12.06 ЮВ 3 20 км 5/5 750 м
[Cu med, cong]
+25.1 +18.6 67 +30 +31 душно 1014.6 1009.5
00 13.06 ЮВ 4 20 км 4/4 750 м
[Cu med, cong]
+26.4 +19.0 64 +32 +37 очень
душно
1013.9 1008.8 +22.2
03 13.06 ЮВ 5 20 км 4/4 750 м
[Cu med, cong]
+27.0 +19.3 63 +33 +36 очень
душно
1011.6 1006.5
06 13.06 ЮВ 4 20 км 6/6 750 м
[Cu Sc]
+25.2 +18.7 67 +30 +30 душно 1011.9 1006.8
09 13.06 ЮВ 5 20 км 4/4 750 м
[Cu hum]
+24.6 +19.4 73 +30 +30 очень
душно
1013.6 1008.5
12 13.06 ЮВ 3 20 км 3/3 750 м
[Cu hum]
+23.9 +19.1 75 +29 +29 душно 1014.1 1009.0 +28.0
18 13.06 штиль 0 20 км 9/5 600 м
[Cu hum As trans]
+22.5 +20.3 87 +29 +29 очень
душно
1012.7 1007.6
21 13.06 ЮВ 1 20 км в посл. час ливневой дождь 9/3 600 м
[Cu hum As trans]
+22.1 +21.5 96 +29 +30 очень
душно
1014.6 1009.4
00 14.06 ЮВ 5 20 км {ливн. осадки} 9/5 750 м
[Cu Sc As trans]
+25.4 +20.1 72 +31 +33 очень
душно
1013.9 1008.8 +21.4 2
03 14.06 ЮВ 6 20 км {ливн. осадки} 8/8 750 м
[Cu Sc]
+26.2 +18.9 64 +31 +32 очень
душно
1011.6 1006.5
06 14.06 ЮВ 5 20 км 1/1 750 м
[Cu Sc]
+25.1 +18.5 67 +30 +30 душно 1011.4 1006.3
09 14.06 В 5 20 км 4/4 750 м
[Cu med, cong]
+24.1 +19.9 77 +29 +29 душно 1013.3 1008.2
12 14.06 ЮВ 5 20 км 5/5 750 м
[Cu Sc]
+24.7 +20.0 75 +30 +30 очень
душно
1013.8 1008.7 +27.5
15 14.06 ЮВ 3 20 км 6/6 750 м
[Cu Sc]
+21.5 +20.1 92 +27 +27 душно 1013.4 1008.2
18 14.06 В 4 20 км 6/4 750 м
[Cu med, cong Ac trans]
+23.1 +17.2 69 +28 +28 душно 1012.6 1007.5
21 14.06 ЮВ 5 20 км в посл. час ливневой дождь 9/5 600 м
[Cu hum As trans]
+24.0 +20.3 80 +30 +30 очень
душно
1014.9 1009.8
00 15.06 ЮВ 6 20 км 4/4 750 м
[Cu hum Ac trans]
+27.3 +19.8 64 +33 +36 очень
душно
1013.9 1008.8 +20.0 0.3
03 15.06 ЮВ 6 20 км 6/6 750 м
[Cu hum]
+26.7 +19.9 66 +33 +34 очень
душно
1011.6 1006.5
06 15.06 В 5 20 км 9/9 750 м
[Cu Sc]
+25.5 +19.7 70 +31 +31 очень
душно
1012.2 1007.1
09 15.06 ЮВ 6 20 км 9/1 750 м
[Cu hum Ac trans]
+25.4 +19.1 68 +30 +30 душно 1013.7 1008.6
12 15.06 ЮВ 1 20 км в посл. час ливневой дождь 10/6 600 м
[Cu Sc As trans]
+24.3 +20.0 77 +30 +30 очень
душно
1014.3 1009.2 +28.5 1
15 15.06 ЮВ 3 20 км в посл. час ливневой дождь 5/4 600 м
[Cu Sc As trans]
+24.0 +19.5 76 +29 +29 душно 1013.3 1008.2
18 15.06 ЮЗ 2 20 км осадки на расстоянии {ливн. осадки} 9/6 600 м
[Cu Sc As trans]
+23.0 +20.7 87 +30 +30 очень
душно
1013.0 1007.9 0.5
21 15.06 ЮВ 2 20 км 9/4 540 м
[Cu Sc Ac As]
+24.0 +20.2 79 +30 +30 очень
душно
1015.4 1010.3
00 16.06 ЮВ 7 20 км {ливн. осадки} 8/5 600 м
[Cu Sc As trans]
+25.5 +19.3 69 +31 +32 очень
душно
1014.7 1009.6 +22.1 2
03 16.06 ЮВ 3 20 км 8/5 600 м
[Cu Sc As trans]
+26.0 +20.7 73 +33 +35 очень
душно
1012.8 1007.7
06 16.06 ЮВ 5 20 км 9/5 540 м
[Cu Sc As trans]
+24.9 +20.5 77 +31 +31 очень
душно
1012.8 1007.7
09 16.06 ЮВ 5 20 км 8/4 750 м
[Cu hum Ac trans]
+24.8 +20.8 78 +31 +31 очень
душно
1014.3 1009.2
12 16.06 ЮВ 4 20 км 9/4 600 м
[Cu hum Ac trans]
+24.5 +21.7 84 +31 +31 очень
душно
1014.2 1009.1 +28.0
18 16.06 ЮВ 4 20 км 6/3 600 м
[Cu hum Ac trans]
+24.3 +21.8 86 +31 +31 очень
душно
1012.6 1007.5
21 16.06 ЮВ 4 20 км {ливн. осадки} 9/4 600 м
[Cu hum Cs]
+28.3 +24.8 81 +40 +41 очень
душно
1013.6 1008.6
00 17.06 ЮВ 4 20 км 9/4 750 м
[Cu Sc Ci sp]
+26.3 +21.9 77 +34 +39 очень
душно
1013.3 1008.2 +23.9 0.2
03 17.06 ЮВ 5 20 км 9/8 750 м
[Cu Sc Ci sp]
+27.6 +22.0 72 +36 +37 очень
душно
1011.1 1006.1
06 17.06 В 2 20 км 8/8 600 м
[Cu Sc Ci sp]
+26.0 +22.8 83 +35 +35 очень
душно
1010.7 1005.6
09 17.06 В 4 20 км 6/6 750 м
[Cu med, cong Ac trans]
+25.3 +21.1 78 +32 +32 очень
душно
1012.4 1007.3
12 17.06 В 4 20 км 6/6 750 м
[Cu Sc Ac trans]
+25.4 +19.7 71 +31 +31 очень
душно
1012.8 1007.7 +29.2
15 17.06 ЮЗ 1 20 км 5/5 750 м
[Cu med, cong]
+24.1 +20.0 78 +30 +30 очень
душно
1012.2 1007.1
18 17.06 СВ 1 20 км 6/6 750 м
[Cu Sc]
+23.4 +20.9 86 +31 +31 очень
душно
1011.5 1006.4
21 17.06 В 3 20 км 8/8 600 м
[Cu Sc]
+25.8 +23.6 88 +35 +36 очень
душно
1012.9 1007.8
00 18.06 В 5 20 км 8/5 660 м
[Cu Sc Ac trans Ci sp]
+27.8 +23.0 75 +37 +39 очень
душно
1012.4 1007.4 +22.2
03 18.06 ЮВ 5 20 км 8/5 660 м
[Cu Sc Ac trans Ci fib]
+28.8 +23.3 72 +39 +41 очень
душно
1010.4 1005.4
06 18.06 ЮВ 3 20 км 8/8 660 м
[Cu Sc Ac trans Ci fib]
+27.0 +23.8 83 +37 +37 очень
душно
1010.9 1005.8
09 18.06 ЮВ 2 20 км 8/3 600 м
[Cu Sc Ac trans]
+25.4 +23.7 90 +35 +35 очень
душно
1012.0 1006.9
12 18.06 ЮВ 5 20 км 8/1 600 м
[Cu hum Ac trans]
+26.0 +23.5 86 +35 +35 очень
душно
1011.9 1006.8 +29.3
15 18.06 ЮВ 1 20 км 10/5 600 м
[Cu Sc As trans]
+25.7 +23.8 89 +35 +35 очень
душно
1011.3 1006.2
18 18.06 ЮВ 2 20 км 9/4 600 м
[Cu Sc Ac As]
+25.6 +22.4 83 +34 +34 очень
душно
1011.5 1006.4
21 18.06 ЮВ 2 20 км 5/5 600 м
[Cu Sc Ac trans Ci]
+26.1 +23.8 87 +36 +37 очень
душно
1013.0 1007.9
00 19.06 ЮВ 2 20 км 6/6 600 м
[Cu Sc Cs]
+28.2 +23.3 75 +38 +43 очень
душно
1013.1 1008.1 +24.0
03 19.06 ЮВ 5 20 км 6/4 750 м
[Cu Sc Ac cast Cs]
+28.8 +22.7 70 +38 +41 очень
душно
1011.4 1006.4

 

Местоположение метеостанции Санто-Пекоа (Вануату): широта -15.51 долгота 167.21 высота над уровнем моря 44 м.

В архиве по умолчанию представлена погода в Санто-Пекоа за последнюю неделю. Архивные данные за месяц целиком и за предыдущие месяцы, начиная с января 2011 года, Вы можете получить, выбрав интересующий диапазон дат из раскрывающегося списка и нажав кнопку "Ввод!".


*Определитесь, кто Вы:
робот инопланетянин человек

Внимание! Время в таблицах - всемирное. Для получения местного времени необходимо прибавить поправку, которая равна 11 ч.

Смотрите также архив погоды в соседних городах и на ближайших метеорологических станциях:

Погода в Саратамате (Вануату) (45 км)
Погода в Ламапе (Вануату) (118 км)
Погода в Соле (Вануату) (188 км)
Погода на Линуа (Вануату) (252 км)
Погода в Порт-Виле (Вануату) (270 км)
Погода на Эроманге (Вануату) (402 км)
Погода в Уайт Грасс (Вануату) (487 км)
Погода на Острове Сюрприз (Новая Каледония) (550 км)
Погода на Островах Санта-Круз (Соломоновы Острова) (556 км)
Погода на Острове Увеа (Новая Каледония) (576 км)

Пояснения к столбцам:

Ветер - указаны скорость ветра в м/с - средняя за 10 мин, порывы в срок и между сроками (в фигурных скобках) и направление, откуда дует ветер: С - северный, СВ - северо-восточный, В - восточный, ЮВ - юго-восточный, Ю - южный, ЮЗ - юго-западный, З - западный, СЗ - северо-западный.
Видимость - горизонтальная дальность видимости в метрах или километрах. При видимости от 1 до 10 км при отсутствии осадков обычно наблюдается дымка, при ухудшении видимости до 1 км и менее - туман. В сухую погоду видимость может ухудшаться дымом, пылью или мглою.
Явления - указаны атмосферные явления, наблюдавшиеся в срок или в последний час перед сроком; фигурными скобками обозначены явления, наблюдавшиеся между сроками (за 1-3 часа до срока); квадратными скобками обозначены град или гололедные отложения с указанием их диаметра в мм.
Облачность - указаны через наклонную черту общая и нижняя облачность в баллах и высота нижней границы облаков в метрах; квадратными скобками обозначены формы облаков: Ci - перистые, Cs - перисто-слоистые, Cc - перисто-кучевые, Ac - высококучевые, As - высокослоистые, Sc - слоисто-кучевые, Ns - слоисто-дождевые, Cu - кучевые, Cb - кучево-дождевые. Подробнее классификацию облаков см. в Атласе облаков (PDF).
T - Температура воздуха - температура, измеренная на высоте 2 м над землей.
Td - Температура точки росы - температура, при понижении до которой содержащийся в воздухе водяной пар достигнет насыщения.
f - Относительная влажность воздуха - влажноcть воздуха, измеренная на высоте 2 м над землей.
Te - Эффективная температура - температура, которую ощущает одетый по сезону человек в тени. Характеристика душности погоды. При расчете учитывается влияние влажности воздуха и скорости ветра на теплоощущения человека.
Tes - Эффективная температура на солнце - температура, которую ощущает человек, с поправкой на солнечный нагрев. Характеристика знойности погоды. Зависит от высоты солнца над горизонтом, облачности и скорости ветра. Ночью, в пасмурную погоду, а также при ветре 12 м/с и более поправка равна нулю.
P - Атмосферное давление - приведенное к уровню моря атмосферное давление.
Po - Атмосферное давление - измеренное на уровне метеостанции атмосферное давление.
Tmin - Минимальная температура - минимум температуры воздуха на высоте 2 м над землей.
Tmax - Максимальная температура - максимум температуры воздуха на высоте 2 м над землей.
R - Количество осадков - Количество выпавших осадков за период времени, мм. При наведении курсора мыши на число - период времени, за который выпало указанное количество осадков.
R24 - Количество осадков - Количество выпавших осадков за 24 часа, мм.
S - Снежный покров - Высота снежного покрова, см. При наведении курсора мыши на число - состояние снежного покрова и степень покрытия местности в баллах.